Location: �terpigny
(49.8910°N, 2.9249°E)
Time: 02:36:33
(UTC+00:00)

H-2A R/B - Pass Details

Date: 24 October 2021
Orbit: 577 x 653 km, 98.5° (Epoch: 05 December)

Event Time Altitude Azimuth Distance (km) Brightness Sun altitude
Rises 18:44:03 0° 17° (NNE) 2,813 5.3 -20.7°
Enters shadow 18:44:35 - 17° (NNE) 2,591 5.1 -20.8°
Exits shadow 18:51:03 54° 154° (SSE) 719 2.1 -21.8°
Drops below altitude 10° 18:54:30 10° 186° (S) 1,931 4.6 -22.3°
Sets 18:56:41 0° 189° (S) 2,840 5.5 -22.7°
